Weather reports worldwide

Advertisment
Gudja, Malta (16599): temperature & dewpoint: 29.03.2020 00:00:00 - 04.04.2020 00:00:00 (CEST)Gudja, Malta (16599): wind speed: 29.03.2020 00:00:00 - 04.04.2020 00:00:00 (CEST)Gudja, Malta (16599): wind direction: 29.03.2020 00:00:00 - 04.04.2020 00:00:00 (CEST)Gudja, Malta (16599): reduced air pressure: 29.03.2020 00:00:00 - 04.04.2020 00:00:00 (CEST)Gudja, Malta (16599): visibility: 29.03.2020 00:00:00 - 04.04.2020 00:00:00 (CEST)
Date & Time tt [°C] td [°C] ff [km/h] ff [kn] dd ppp [hPa] vv [km]
04.04.2020 00:00:00 - - - - - - -
03.04.2020 23:00:00 12,6 10,9 35 19 NNE 1008,2 11
03.04.2020 22:00:00 - - - - - - -
03.04.2020 21:00:00 - - - - - - -
03.04.2020 20:00:00 12,9 11,0 34 18 NNE 1006,9 15
03.04.2020 19:00:00 - - - - - - -
03.04.2020 18:00:00 - - - - - - -
03.04.2020 17:00:00 13,2 11,1 34 18 NNE 1006,0 13
03.04.2020 16:00:00 - - - - - - -
03.04.2020 15:00:00 - - - - - - -
03.04.2020 14:00:00 13,7 11,1 31 17 NE 1005,6 15
03.04.2020 13:00:00 - - - - - - -
03.04.2020 12:00:00 - - - - - - -
03.04.2020 11:00:00 13,8 10,5 29 16 NE 1007,5 18
03.04.2020 10:00:00 - - - - - - -
03.04.2020 09:00:00 - - - - - - -
03.04.2020 08:00:00 13,1 10,0 29 16 ENE 1008,0 15
03.04.2020 07:00:00 - - - - - - -
03.04.2020 06:00:00 - - - - - - -
03.04.2020 05:00:00 13,0 9,9 28 15 ENE 1007,6 18
03.04.2020 04:00:00 - - - - - - -
03.04.2020 03:00:00 - - - - - - -
03.04.2020 02:00:00 13,2 10,4 26 14 ENE 1009,7 16
03.04.2020 01:00:00 - - - - - - -
03.04.2020 00:00:00 - - - - - - -
02.04.2020 23:00:00 13,4 11,0 28 15 ENE 1010,3 16
02.04.2020 22:00:00 - - - - - - -
02.04.2020 21:00:00 - - - - - - -
02.04.2020 20:00:00 13,8 11,6 29 16 ENE 1009,6 15
02.04.2020 19:00:00 - - - - - - -
02.04.2020 18:00:00 - - - - - - -
02.04.2020 17:00:00 15,0 12,6 29 16 E 1008,8 16
02.04.2020 16:00:00 - - - - - - -
02.04.2020 15:00:00 - - - - - - -
02.04.2020 14:00:00 15,9 12,8 37 20 ESE 1010,5 16
02.04.2020 13:00:00 - - - - - - -
02.04.2020 12:00:00 - - - - - - -
02.04.2020 11:00:00 14,9 11,9 31 17 E 1013,0 19
02.04.2020 10:00:00 - - - - - - -
02.04.2020 09:00:00 - - - - - - -
02.04.2020 08:00:00 13,5 12,0 16 9 E 1013,5 15
02.04.2020 07:00:00 - - - - - - -
02.04.2020 06:00:00 - - - - - - -
02.04.2020 05:00:00 13,2 11,6 22 12 E 1012,1 18
02.04.2020 04:00:00 - - - - - - -
02.04.2020 03:00:00 - - - - - - -
02.04.2020 02:00:00 13,4 12,0 15 8 ENE 1013,9 17
02.04.2020 01:00:00 - - - - - - -
02.04.2020 00:00:00 - - - - - - -
01.04.2020 23:00:00 14,2 12,2 15 8 ENE 1014,4 30
01.04.2020 22:00:00 - - - - - - -
01.04.2020 21:00:00 - - - - - - -
01.04.2020 20:00:00 14,6 12,3 9 5 W 1013,5 22
01.04.2020 19:00:00 - - - - - - -
01.04.2020 18:00:00 - - - - - - -
01.04.2020 17:00:00 19,4 13,4 18 10 N 1012,5 35
01.04.2020 16:00:00 - - - - - - -
01.04.2020 15:00:00 - - - - - - -
01.04.2020 14:00:00 19,5 14,8 16 9 W 1013,2 21
01.04.2020 13:00:00 - - - - - - -
01.04.2020 12:00:00 - - - - - - -
01.04.2020 11:00:00 18,2 14,0 29 16 WSW 1013,7 18
01.04.2020 10:00:00 - - - - - - -
01.04.2020 09:00:00 - - - - - - -
01.04.2020 08:00:00 15,2 14,0 16 9 SSW 1013,5 12
01.04.2020 07:00:00 - - - - - - -
01.04.2020 06:00:00 - - - - - - -
01.04.2020 05:00:00 14,6 13,0 11 6 SSW 1014,0 12
01.04.2020 04:00:00 - - - - - - -
01.04.2020 03:00:00 - - - - - - -
01.04.2020 02:00:00 14,0 12,4 9 5 SSW 1015,5 12
01.04.2020 01:00:00 - - - - - - -
01.04.2020 00:00:00 - - - - - - -
31.03.2020 23:00:00 13,0 11,6 9 5 SW 1016,7 12
31.03.2020 22:00:00 - - - - - - -
31.03.2020 21:00:00 - - - - - - -
31.03.2020 20:00:00 13,5 11,4 8 4 WSW 1016,4 12
31.03.2020 19:00:00 - - - - - - -
31.03.2020 18:00:00 - - - - - - -
31.03.2020 17:00:00 17,4 10,8 18 10 W 1016,0 25
31.03.2020 16:00:00 - - - - - - -
31.03.2020 15:00:00 - - - - - - -
31.03.2020 14:00:00 18,0 9,5 21 11 WNW 1016,3 35
31.03.2020 13:00:00 - - - - - - -
31.03.2020 12:00:00 - - - - - - -
31.03.2020 11:00:00 16,5 10,4 21 11 NW 1016,6 40
31.03.2020 10:00:00 - - - - - - -
31.03.2020 09:00:00 - - - - - - -
31.03.2020 08:00:00 12,5 9,9 9 5 W 1015,8 35
31.03.2020 07:00:00 - - - - - - -
31.03.2020 06:00:00 - - - - - - -
31.03.2020 05:00:00 11,1 9,4 16 9 WNW 1014,8 35
31.03.2020 04:00:00 - - - - - - -
31.03.2020 03:00:00 - - - - - - -
31.03.2020 02:00:00 10,5 9,1 11 6 WNW 1014,9 35
31.03.2020 01:00:00 - - - - - - -
31.03.2020 00:00:00 - - - - - - -
30.03.2020 23:00:00 9,6 8,4 11 6 WNW 1014,9 26
30.03.2020 22:00:00 - - - - - - -
30.03.2020 21:00:00 - - - - - - -
30.03.2020 20:00:00 10,7 8,7 9 5 NW 1013,3 45
30.03.2020 19:00:00 - - - - - - -
30.03.2020 18:00:00 - - - - - - -
30.03.2020 17:00:00 12,8 9,8 15 8 N 1012,1 20
30.03.2020 16:00:00 - - - - - - -
30.03.2020 15:00:00 - - - - - - -
30.03.2020 14:00:00 11,7 10,8 13 7 N 1012,3 12
30.03.2020 13:00:00 - - - - - - -
30.03.2020 12:00:00 - - - - - - -
30.03.2020 11:00:00 11,5 10,3 13 7 NE 1012,2 12
30.03.2020 10:00:00 - - - - - - -
30.03.2020 09:00:00 - - - - - - -
30.03.2020 08:00:00 10,3 9,4 11 6 E 1010,7 8
30.03.2020 07:00:00 - - - - - - -
30.03.2020 06:00:00 - - - - - - -
30.03.2020 05:00:00 11,1 9,4 8 4 N 1010,4 9
30.03.2020 04:00:00 - - - - - - -
30.03.2020 03:00:00 - - - - - - -
30.03.2020 02:00:00 13,6 10,5 11 6 ENE 1011,0 45
30.03.2020 01:00:00 - - - - - - -
30.03.2020 00:00:00 - - - - - - -
29.03.2020 23:00:00 13,6 10,7 13 7 E 1011,8 12
29.03.2020 22:00:00 - - - - - - -
29.03.2020 21:00:00 - - - - - - -
29.03.2020 20:00:00 13,7 10,3 13 7 E 1011,5 15
29.03.2020 19:00:00 - - - - - - -
29.03.2020 18:00:00 - - - - - - -
29.03.2020 17:00:00 15,4 10,5 18 10 E 1011,4 55
29.03.2020 16:00:00 - - - - - - -
29.03.2020 15:00:00 - - - - - - -
29.03.2020 14:00:00 16,2 10,5 21 11 ENE 1012,0 40
29.03.2020 13:00:00 - - - - - - -
29.03.2020 12:00:00 - - - - - - -
29.03.2020 11:00:00 15,4 10,1 21 11 NNE 1012,6 45
29.03.2020 10:00:00 - - - - - - -
29.03.2020 09:00:00 - - - - - - -
29.03.2020 08:00:00 11,7 9,9 9 5 NNW 1013,7 30
29.03.2020 07:00:00 - - - - - - -
29.03.2020 06:00:00 - - - - - - -
29.03.2020 05:00:00 10,0 8,8 9 5 WNW 1014,3 26
29.03.2020 04:00:00 - - - - - - -
29.03.2020 03:00:00 - - - - - - -
29.03.2020 02:00:00 11,7 9,4 5 3 NW 1015,3 30
29.03.2020 01:00:00 - - - - - - -
29.03.2020 00:00:00 - - - - - - -

tt = temperature
td = dewpoint
ff = wind speed
dd = wind direction
ppp = reduced air pressure
vv = visibility

Next stations